Regional Weather Roundup
Issued by NWS Newport/Morehead, NC

Current Version | Previous Version | Text Only | Print | Product List | Glossary On
Versions: 1 2 3 4 5 6 7 8 9 10 11 12 13 14 15 16 17 18 19 20 21 22 23 24 25 26 27 28 29 30 31 32 33 34 35 36 37 38 39 40 41 42 43 44 45 46 47 48 49 50
000 ASUS42 KMHX 301225 RWRMHX WEATHER ROUNDUP FOR EASTERN NORTH CAROLINA NATIONAL WEATHER SERVICE NEWPORT/MOREHEAD CITY NC 800 AM EDT SUN APR 30 2017 NOTE: "FAIR" INDICATES FEW OR NO CLOUDS BELOW 12,000 FEET WITH NO SIGNIFICANT WEATHER AND/OR OBSTRUCTIONS TO VISIBILITY NCZ015>017-031-032-045>047-102-103-301300- NORTH COAST CITY SKY/WX TMP DP RH WIND PRES REMARKS EDENTON CLOUDY 74 68 80 SW7 30.21R ELIZABETH CITY LGT RAIN 73 69 87 SW10 30.20R KITTY HAWK CLOUDY 73 67 83 CALM 30.20S MANTEO CLOUDY 73 68 86 W7 30.22S $$ NCZ045>047-081-094-103-104-301300- CENTRAL COAST CITY SKY/WX TMP DP RH WIND PRES REMARKS FRISCO SUNNY 74 70 87 VRB6 30.23R FOG $$ NCZ095-097-098-100-101-301300- SOUTHERN COAST CITY SKY/WX TMP DP RH WIND PRES REMARKS BEAUFORT SUNNY 74 73 97 SW12 30.22R CEDAR ISLAND NOT AVBL JACKSONVILLE MOSUNNY 72 72 100 CALM 30.21R PINEY ISLAND MOSUNNY N/A N/A N/A SW7 30.22R WILMINGTON MOSUNNY 75 72 90 S8 30.20R $$ NCZ011>013-027>030-043-044-078>080-089-090>093-098-301300- COASTAL PLAIN CITY SKY/WX TMP DP RH WIND PRES REMARKS AHOSKIE N/A 71 67 87 CALM 30.20R CLINTON MOSUNNY 73 71 93 SW5 30.22R ELIZABETHTOWN CLOUDY 73 72 99 S3 30.21R GOLDSBORO CLOUDY 73 73 100 SW6 30.21R GREENVILLE CLOUDY 73 70 88 SW7 30.23R HAVELOCK SUNNY 74 71 91 SW8 30.22R KENANSVILLE CLOUDY 73 70 88 CALM 30.22R KINSTON CLOUDY 73 70 88 CALM 30.22R NEW BERN PTSUNNY 72 72 100 SW7 30.22S RICHLANDS FOG 72 70 94 S5 30.22S VSB 1/4 ROCKY MOUNT PTSUNNY 73 69 87 S12 30.21R WASHINGTON CLOUDY 73 69 87 SW9 30.22R WHITEVILLE PTSUNNY 72 71 95 S5 30.20R $$ AMZ130-135-150-152-154-156-158-170-250-252-270-ANZ085-086-088-633-658-670-301300- MARINE OBSERVATIONS STATION/POSITION TIME TEMP WIND PRES WAVE SWELL AIR SEA DIR/SP/G HT/PER HT/PER (UTC) (F) (DEG/KT/KT) (MB) (FT/S) (FT/S) CHESAPEAKE LIGHT NOT AVBL 64 E VA BEACH 1150 61 57 210/ 12/ 14 1023.1 3/ 5 2/ 5 DUCK 1200 72 56 220/ 10/ 14 1022.4 2 E DUCK 1200 59 N/A 2/ 7 OREGON INLET 1200 77 220/ 13/ 15 1023.2 13E OREGON INLT 1148 62 N/A 3/ 5 2/ 8 HATTERAS CG 1200 74 72 220/ 7/ 10 1023.4 DIAMOND BUOY 1150 76 74 230/ 14/ 16 1023.6 3/ 4 2/ 7 CAPE LOOKOUT 1200 74 210/ 10/ 12 1023.0 BEAUFORT LAB 1200 74 72 210/ 8/ 11 1022.5 30 SE NEW RVR IN 1208 74 200/ 6/ 10 1023.6 30 SE NEW RVR IN 1143 73 N/A 3/ 6 27 SE WRIGHTSVLE 1208 74 73 170/ 10/ 12 1022.6 5 SE WRIGHTSVLE 1208 73 71 160/ 6/ 10 1022.8 225 S CAPE HAT 1150 74 76 150/ 10/ 10 1025.6 3/ 8 3/ 8 41 SE CHARLESTON 1210 76 75 160/ 16/ 17 1022.0 $$

USA.gov is the U.S. government's official web portal to all federal, state and local government web resources and services.